Regional Weather Roundup
Issued by NWS

Home | Current Version | Previous Version | Graphics & Text | Print | Product List | Glossary On
Versions: 1 2 3 4 5 6 7 8 9 10 11 12 13 14 15 16 17 18 19 20 21 22 23 24 25 26 27 28 29 30 31 32 33 34 35 36 37 38 39 40 41 42 43 44 45 46 47 48 49 50
000
ASUS43 KLMK 272202
RWRKY
KENTUCKY REGIONAL WEATHER ROUNDUP
NATIONAL WEATHER SERVICE LOUISVILLE KY
500 PM EST MON FEB 27 2017

NOTE "FAIR" INDICATES FEW OR NO CLOUDS BELOW 12,000 FEET
WITH NO SIGNIFICANT WEATHER AND/OR OBSTRUCTIONS TO VISIBILITY.

KYZ001>023-026-027-061>063-070>075-272300-
WESTERN AND SOUTH CENTRAL KENTUCKY

CITY           SKY/WX    TMP DP  RH WIND       PRES   REMARKS
PADUCAH        SUNNY     64  46  52 S9        30.07F
HENDERSON      PTSUNNY   61  43  51 CALM      30.09F
OWENSBORO      CLOUDY    61  45  55 S9        30.11F
HOPKINSVILLE   SUNNY     64  43  45 S5        30.11S
BOWLING GREEN  SUNNY     62  42  47 S10       30.14F
GLASGOW        NOT AVBL
$$

KYZ024-025-028>034-038-045-046-053-272300-
NORTH CENTRAL KENTUCKY

CITY           SKY/WX    TMP DP  RH WIND       PRES   REMARKS
LOUISVILLE/SDF MOSUNNY   59  37  44 S5        30.15F
LOUISVILLE/LOU MOSUNNY   58  38  47 VRB6      30.16F
FORT KNOX      MOSUNNY   58  40  49 S8        30.12F
$$

KYZ035>037-039>044-047>052-055>060-089>105-272300-
NORTHEAST KENTUCKY

CITY           SKY/WX    TMP DP  RH WIND       PRES   REMARKS
LEXINGTON      PTSUNNY   58  39  49 SE7       30.17F
COVINGTON      PTSUNNY   49  44  83 SE8       30.19S
FRANKFORT      CLOUDY    56  37  49 VRB3      30.16F
$$

KYZ054-064>069-076>088-106>120-272300-
SOUTHEAST KENTUCKY

CITY           SKY/WX    TMP DP  RH WIND       PRES   REMARKS
JACKSON        CLOUDY    53  31  42 VRB3      30.22S
LONDON         CLOUDY    53  34  48 VRB3      30.21S
SOMERSET       CLOUDY    54  36  50 S6        30.21S
MIDDLESBORO    CLOUDY    52  35  51 SE5       30.23S
MONTICELLO     CLOUDY    56  41  57 SE7       30.20F
$$





USA.gov is the U.S. government's official web portal to all federal, state and local government web resources and services.